FW4059 Weather Reports


time (UTC)temp
C
wind
direction
speed
KPH
gust
KPH
rain 1hr
cm
rain 24hr
cm
rain mn
cm
humidity
%
barometer
mb
20260510151559 11 274 3.2 11.3 0.00 0.00 0.00 58 1017.6
20260510151502 11 276 1.6 11.3 0.00 0.00 0.00 58 1017.6
20260510150019 10 340 4.8 9.7 0.00 0.00 0.00 60 1017.6
20260510144541 10 287 4.8 11.3 0.00 0.00 0.00 62 1017.6
20260510143057 10 276 1.6 11.3 0.00 0.00 0.00 62 1017.2
20260510141507 10 257 3.2 11.3 0.00 0.00 0.00 66 1016.8
20260510140025 10 317 3.2 12.9 0.00 0.00 0.00 68 1017.0
20260510134533 10 294 1.6 8.0 0.00 0.00 0.00 66 1016.6
20260510133051 9 293 3.2 12.9 0.00 0.00 0.00 65 1016.3
20260510131507 9 282 0.0 9.7 0.00 0.00 0.00 69 1016.0
20260510130038 9 276 1.6 9.7 0.00 0.00 0.00 69 1015.9
20260510124548 8 300 1.6 12.9 0.00 0.00 0.00 70 1015.7
20260510123100 8 244 0.0 9.7 0.00 0.00 0.00 71 1015.6
20260510121521 8 265 1.6 8.0 0.00 0.00 0.00 74 1015.5
20260510120040 8 245 0.0 6.4 0.00 0.00 0.00 76 1015.1
20260510114510 7 264 0.0 3.2 0.00 0.00 0.00 77 1015.0
20260510113018 7 288 0.0 3.2 0.00 0.00 0.00 79 1014.8
20260510111538 6 266 0.0 1.6 0.00 0.00 0.00 81 1014.6
20260510110054 6 288 0.0 0.0 0.00 0.00 0.00 81 1014.3
20260510104525 6 292 0.0 1.6 0.00 0.00 0.00 82 1013.8
20260510103047 6 277 0.0 3.2 0.00 0.00 0.00 83 1013.6
20260510101559 6 276 0.0 0.0 0.00 0.00 0.00 85 1012.9
20260510100008 6 286 0.0 3.2 0.00 0.00 0.00 83 1012.5
20260510094535 6 271 0.0 3.2 0.00 0.00 0.00 82 1012.6
20260510093101 7 278 0.0 1.6 0.00 0.00 0.00 83 1012.6
20260510091515 7 291 0.0 3.2 0.00 0.00 0.00 83 1012.4
20260510090031 7 276 0.0 1.6 0.00 0.00 0.00 88 1011.9
20260510084546 7 279 0.0 4.8 0.00 0.00 0.00 90 1011.7
20260510083013 7 275 0.0 0.0 0.00 0.00 0.00 94 1011.5
20260510081534 7 275 0.0 0.0 0.00 0.00 0.00 92 1011.3
20260510080056 8 275 0.0 0.0 0.00 0.00 0.00 91 1011.1
20260510074506 8 270 0.0 0.0 0.00 0.00 0.00 91 1011.1
20260510073032 8 271 0.0 0.0 0.00 0.00 0.00 90 1011.0
20260510071547 8 269 0.0 0.0 0.00 0.00 0.00 89 1010.7
20260510070016 8 269 0.0 1.6 0.00 0.00 0.00 86 1010.7
20260510064539 8 269 0.0 1.6 0.00 0.00 0.00 87 1010.2
20260510063058 8 285 0.0 0.0 0.00 0.00 0.00 93 1010.1
20260510061523 8 285 0.0 0.0 0.00 0.00 0.00 91 1009.8
20260510060045 9 285 0.0 0.0 0.00 0.00 0.00 92 1009.9
20260510054504 9 285 0.0 0.0 0.00 0.00 0.00 93 1009.8
20260510053029 10 285 0.0 4.8 0.00 0.00 0.00 92 1009.9
20260510051540 10 136 0.0 4.8 0.00 0.00 0.00 97 1009.5
20260510050008 10 228 0.0 0.0 0.00 0.00 0.00 97 1009.3
20260510044522 10 228 0.0 0.0 0.00 0.00 0.00 97 1009.2
20260510043036 10 212 0.0 0.0 0.00 0.00 0.00 97 1008.9
20260510041559 9 212 0.0 1.6 0.00 0.00 0.00 96 1008.4
20260510040121 10 212 0.0 0.0 0.00 0.00 0.00 96 1008.2
20260510034559 10 188 0.0 0.0 0.00 0.00 0.00 96 1007.9
20260510033024 10 219 0.0 1.6 0.00 0.00 0.00 96 1007.7
20260510031548 10 219 0.0 1.6 0.00 0.00 0.00 95 1007.9
20260510030022 10 269 0.0 3.2 0.00 0.00 0.00 96 1007.8
20260510024530 10 219 0.0 3.2 0.00 0.00 0.00 96 1007.7
20260510023057 10 217 0.0 1.6 0.00 0.00 0.00 96 1007.5
20260510021525 10 227 0.0 1.6 0.00 0.00 0.00 96 1007.3
20260510020042 10 222 0.0 4.8 0.00 0.00 0.00 96 1007.1
20260510014558 10 228 0.0 3.2 0.00 0.00 0.00 96 1007.2
20260510013029 10 240 0.0 6.4 0.00 0.00 0.00 96 1007.1
20260510011555 10 203 0.0 6.4 0.00 0.00 0.00 96 1006.8
20260510010021 10 211 0.0 1.6 0.00 0.00 0.00 96 1006.4
20260510004551 10 197 0.0 6.4 0.00 0.00 0.00 96 1006.1
20260510003023 10 134 0.0 0.0 0.00 0.00 0.00 96 1006.0
20260510001636 10 141 0.0 0.0 0.00 0.00 0.00 96 1006.2
20260510000055 10 219 0.0 1.6 0.00 0.00 0.00 96 1006.1
20260509234536 11 224 0.0 3.2 0.00 0.00 0.00 95 1005.5
20260509233036 10 241 0.0 3.2 0.00 0.00 0.00 94 1006.3
20260509231559 10 250 0.0 8.0 0.00 0.00 0.00 93 1006.4
20260509230017 12 262 4.8 27.4 0.00 0.00 0.00 88 1006.8
20260509224546 16 266 0.0 3.2 0.00 0.00 0.00 77 1004.5
20260509223101 16 160 0.0 1.6 0.00 0.00 0.00 75 1004.0
20260509221517 16 338 0.0 1.6 0.00 0.00 0.00 76 1004.1
20260509220039 16 293 0.0 0.0 0.00 0.00 0.00 76 1004.2
20260509214557 16 293 0.0 3.2 0.00 0.00 0.00 75 1004.4
20260509213021 17 156 0.0 6.4 0.00 0.00 0.00 75 1004.5
20260509211545 17 190 0.0 3.2 0.00 0.00 0.00 74 1004.5
20260509210004 17 254 0.0 3.2 0.00 0.00 0.00 72 1004.9
20260509204527 17 260 0.0 6.4 0.00 0.00 0.00 71 1004.9
20260509203055 17 255 0.0 4.8 0.00 0.00 0.00 72 1005.0
20260509201514 17 250 0.0 4.8 0.00 0.00 0.00 70 1005.0
20260509200038 18 243 1.6 6.4 0.00 0.00 0.00 68 1004.9
20260509194555 18 221 0.0 6.4 0.00 0.00 0.00 69 1005.2
20260509193016 18 224 0.0 3.2 0.00 0.00 0.00 69 1005.2
20260509191543 18 207 0.0 4.8 0.00 0.00 0.00 68 1005.6
20260509190059 18 217 0.0 6.4 0.00 0.00 0.00 70 1005.8
20260509190001 18 217 0.0 6.4 0.00 0.00 0.00 70 1005.9
20260509184529 18 238 0.0 3.2 0.00 0.00 0.00 68 1005.9
20260509183035 18 230 0.0 6.4 0.00 0.00 0.00 69 1006.0
20260509181608 18 260 0.0 4.8 0.00 0.00 0.00 68 1006.1
20260509180019 18 224 0.0 8.0 0.00 0.00 0.00 69 1006.1
20260509174531 18 249 0.0 8.0 0.00 0.00 0.00 68 1006.4
20260509173107 18 218 0.0 6.4 0.00 0.00 0.00 68 1006.7
20260509171519 18 232 1.6 6.4 0.00 0.00 0.00 66 1007.1
20260509170049 18 17 0.0 6.4 0.00 0.00 0.00 67 1006.8
20260509164557 18 56 0.0 4.8 0.00 0.00 0.00 71 1006.9
20260509164504 18 220 0.0 4.8 0.00 0.00 0.00 70 1007.1
20260509163024 17 229 0.0 6.4 0.00 0.00 0.00 72 1007.3
20260509161552 17 224 0.0 6.4 0.00 0.00 0.00 71 1007.7
20260509160058 16 236 1.6 6.4 0.00 0.00 0.00 75 1007.6
20260509154525 17 228 0.0 4.8 0.00 0.00 0.00 74 1007.5
20260509153047 15 279 0.0 4.8 0.00 0.00 0.00 76 1007.8